Find Starlink 2252

NORAD ID: 48595 Int'l Des: 2021-041 Owner: SPXS Country: US Constellation: starlink operational
LEOCIRCULARSTARLINK_TYPE

現在のビュー

3D地球を読み込み中...

Starlink 2252について

説明を読み込み中...

次回通過

Passes for default location (London). Set your location on the main map for personalized predictions.

高度履歴

Loading altitude history...

軌道要素

1 48595U 21041AU 26151.21591572 .00000338 00000-0 22646-4 0 9994
2 48595 53.1588 125.0433 0000629 140.0405 220.0642 15.31705221278866
Epoch: May 31, 2026 • Age: 15 hours

現在のステータス

高度 489.2 km
速度 7.62 km/s
衛星直下点 -52.65°S, 175.98°W
打ち上げ日 May 15, 2021
運用期間 5 years
タイプ internet

技術仕様

分類 Payload
質量 260.00 kg
乾燥質量 248.00 kg
総質量 260.00 kg
長さ 0.20 m
直径 2.80 m
スパン 9.00 m
形状 Box + pan
製造者 SPXS
バスタイプ Starlink
フェーズステータス In Orbit
所有者/国 SPXS/US

Most Searched